Погода в Алхастах

Россия / Республика Ингушетия     43°11′03″N   44°59′42″E
темп.,
°C
ветер,
м/с
пор.,
м/с
влажн.,
%
обл.,
%
осадки,
мм/ч
давл.,
гПа
погр.,
м
13 мая, чт
чт1300:00+10ю11870 0.0 101412
03:00+9ю11860 0.0 101410
06:00+12ю11770 0.0 101333
09:00+18св21600 0.0 1013435
12:00+22всв33540 0.0 1014808
15:00+23св33512 0.0 1013983
18:00+20св22701 0.0 101435
21:00+15ююз118219 0.2 101511
14 мая, пт
пт1400:00+14ю1184100 0.0 101411
03:00+13ююз21794 0.0 101312
06:00+15ю11722 0.0 101418
09:00+22св21555 0.0 1013361
12:00+25всв34490 0.0 1012685
15:00+26всв34490 0.0 1011910
18:00+24ссв11685 0.0 101117
21:00+18юз22764 0.0 101220
15 мая, сб
сб1500:00+16ю22670 0.0 101215
03:00+16юз32534 0.0 101224
06:00+17юз23640 0.0 101340
09:00+25с11465 0.0 1013518
12:00+27ссв22477 0.0 10131326
15:00+27всв325122 0.0 10121701
18:00+23зсз1174100 2.7 101312
21:00+17ююз228039 3.3 101320
16 мая, вс
вс1600:00+16юз227788 0.0 101222
03:00+16ююз227385 0.0 101117
06:00+17юз11724 0.0 101131
09:00+23св22535 0.0 1009485
12:00+26всв45472 0.0 1007848
15:00+27св33460 0.0 10061030
18:00+24сз22620 0.0 100519
21:00+18юз236736 0.0 100627
17 мая, пн
пн1700:00+17юз33425 0.0 100531
03:00+15ююз22432 0.0 100520
06:00+17ююз22555 0.0 100622
09:00+24св22434 0.0 1005368
12:00+26всв44390 0.0 1005633
15:00+28св334127 0.0 1005912
18:00+24ссв226487 0.0 100519
21:00+19зюз34745 0.0 100851